Wind_Speed
6 6 6 10 8 6 11 9 6 11 11 8 10 13 12 10 13 11 11 10 8 10 11 12 16 16 20 21 19 18 18 18
6 7 3 9 5 7 10 9 6 11 9 6 9 11 8 9 13 12 12 11 10 12 13 11 12 14 16 17 18 19 19 17
4 5 2 7 5 6 9 9 6 7 9 7 8 8 10 13 10 12 12 12 10 10 11 12 13 15 15 16 17 20 19 16
2 2 0 5 5 4 8 7 5 5 7 9 6 8 8 10 10 9 10 9 8 8 10 9 10 12 15 17 16 17 15 17
2 1 3 4 5 5 6 6 5 6 8 8 8 8 11 11 7 8 9 10 9 9 9 12 10 8 12 15 17 17 17 16
3 3 3 4 5 6 4 6 6 7 9 9 10 9 13 15 14 12 14 11 14 14 11 7 8 7 12 13 16 18 18 15
5 4 4 5 7 7 4 5 6 7 8 8 8 9 13 16 20 16 17 17 18 18 17 17 13 17 18 17 17 16 16 16
4 5 4 6 4 8 6 5 5 5 5 4 6 10 12 14 15 18 18 18 17 21 20 24 20 24 22 24 22 21 20 18
6 7 5 5 3 3 6 4 4 3 5 4 5 9 12 13 13 14 15 16 18 20 22 25 23 25 26 20 16 18 18 23
5 6 6 4 6 5 3 4 2 1 4 4 4 7 9 8 9 9 11 14 16 18 19 20 21 22 22 24 25 23 22 20
8 7 7 5 5 5 8 3 0 3 3 5 4 3 6 5 3 6 10 11 14 15 16 17 17 16 17 17 17 16 15 14
14 10 8 8 7 7 8 6 2 3 5 6 6 5 6 6 5 8 12 15 16 18 20 19 20 20 18 17 16 15 13 11
20 16 11 10 10 8 8 9 6 6 5 7 8 7 9 8 7 10 11 12 13 16 17 18 17 17 15 13 11 9 7 6
20 20 18 13 12 10 11 10 8 9 9 8 8 10 13 12 11 12 13 12 12 13 12 11 10 10 9 7 8 7 5 5
21 20 20 19 16 13 11 11 11 10 12 12 11 11 13 16 15 15 15 12 11 13 12 10 8 5 2 3 6 7 4 6
23 22 23 23 21 18 16 15 15 14 14 14 15 15 15 16 17 17 16 15 14 14 15 13 11 11 11 11 11 9 9 12
26 31 29 28 28 25 19 18 18 17 15 15 15 16 17 18 18 19 20 19 19 19 20 20 20 19 19 17 17 14 14 14
28 32 36 31 32 28 24 19 20 19 17 17 18 20 20 19 19 21 21 23 24 24 24 25 24 24 24 22 18 15 16 16
30 32 36 34 35 33 28 23 23 21 18 18 18 19 21 22 24 23 25 25 24 25 26 26 24 22 21 19 18 17 17 19
36 35 38 38 35 37 35 30 28 26 23 20 18 19 22 22 21 22 24 27 26 24 24 23 23 23 23 21 20 21 24 27
Wind_Direction
347 332 331 334 344 336 331 342 348 335 332 339 352 355 7 47 50 96 102 103 105 112 116 119 127 151 144 150 152 146 136 131
6 343 343 356 12 355 340 351 332 339 345 358 9 6 32 58 65 87 96 99 103 105 119 138 139 143 153 156 153 150 146 142
2 341 352 11 15 4 349 354 342 357 17 16 19 29 53 61 76 73 80 94 108 107 109 121 148 153 156 159 155 153 159 144
3 346 65 20 17 11 354 0 355 19 18 6 62 58 62 41 61 71 82 81 102 111 116 116 128 149 163 164 166 164 169 149
97 53 147 46 29 29 1 11 12 39 34 61 78 76 67 65 60 73 75 88 82 120 123 109 101 146 161 168 174 177 170 159
99 99 146 87 41 43 10 16 29 58 69 77 85 77 70 67 83 93 85 71 84 109 98 83 98 138 161 166 168 165 168 173
133 95 128 108 54 52 23 29 37 83 93 83 71 60 69 75 76 85 91 93 89 90 86 86 76 108 122 130 145 158 176 189
115 135 135 133 93 56 42 41 40 101 106 89 71 76 78 83 86 91 90 93 93 89 98 88 92 97 106 114 109 118 130 134
132 158 145 174 181 55 46 50 57 84 118 115 101 100 98 97 93 93 95 93 94 100 98 95 95 99 104 106 114 114 122 123
155 163 170 163 201 248 356 30 90 112 126 133 127 130 115 104 106 100 101 101 100 103 104 105 102 97 97 101 106 108 107 102
190 175 173 185 171 231 261 304 190 176 185 163 180 172 139 126 118 118 117 118 117 112 109 107 104 100 100 99 99 102 107 111
196 201 176 192 198 193 215 252 258 210 202 204 184 192 170 147 144 140 127 124 120 117 114 109 103 99 93 90 90 89 87 84
202 205 208 200 207 208 201 223 242 241 228 213 206 179 180 171 168 163 151 140 130 125 119 115 112 106 100 92 83 75 64 49
208 210 211 217 215 214 206 216 233 231 231 219 214 195 185 187 188 187 180 172 163 157 152 144 135 121 106 82 46 24 14 352
218 220 218 225 228 220 219 225 236 229 223 229 222 213 202 197 195 203 209 210 208 199 198 197 197 196 245 313 338 331 285 292
222 227 228 226 232 227 222 230 236 233 230 230 231 226 218 216 210 212 218 222 226 228 226 229 239 252 267 282 301 300 277 279
253 239 227 227 230 234 222 231 235 233 223 225 229 229 226 227 229 227 225 229 232 235 239 243 248 256 267 276 287 273 279 289
253 236 231 219 228 232 234 230 230 224 225 228 227 224 227 233 235 234 236 239 243 245 249 254 258 263 269 274 275 272 272 281
248 249 235 230 224 231 231 231 226 216 213 213 217 223 230 237 241 243 238 239 244 250 253 257 258 259 261 264 263 265 270 277
253 248 238 233 229 233 235 228 223 221 221 218 221 225 229 234 237 241 246 245 247 247 247 251 257 258 258 263 260 270 279 282
Height
5733 5730 5729 5728 5727 5727 5725 5723 5722 5721 5718 5715 5713 5710 5707 5704 5701 5698 5697 5697 5698 5698 5699 5700 5701 5704 5706 5709 5713 5716 5719 5722
5730 5729 5729 5727 5727 5726 5725 5723 5723 5721 5719 5716 5715 5711 5709 5707 5705 5702 5702 5702 5702 5702 5702 5704 5705 5707 5709 5713 5716 5719 5722 5724
5728 5728 5728 5727 5727 5727 5725 5724 5723 5722 5719 5717 5716 5714 5712 5711 5710 5708 5706 5706 5706 5706 5707 5708 5709 5710 5712 5715 5719 5722 5726 5729
5727 5727 5727 5727 5727 5727 5726 5724 5724 5723 5721 5719 5717 5717 5716 5714 5713 5712 5711 5710 5710 5710 5710 5711 5712 5713 5715 5717 5721 5725 5729 5733
5727 5726 5727 5727 5727 5727 5727 5725 5724 5723 5722 5721 5720 5720 5718 5717 5715 5715 5714 5714 5713 5713 5714 5715 5715 5716 5718 5720 5723 5726 5730 5734
5726 5726 5727 5727 5727 5727 5728 5727 5725 5724 5723 5723 5723 5723 5721 5720 5718 5717 5718 5718 5717 5717 5718 5718 5718 5719 5720 5723 5725 5729 5732 5735
5726 5725 5726 5727 5728 5728 5729 5728 5727 5727 5727 5727 5727 5727 5725 5724 5723 5722 5722 5722 5723 5722 5722 5721 5721 5722 5722 5726 5729 5732 5735 5738
5725 5725 5726 5727 5729 5729 5730 5729 5729 5729 5730 5731 5730 5729 5729 5729 5729 5728 5728 5728 5728 5728 5727 5728 5729 5729 5730 5733 5735 5736 5739 5741
5723 5724 5725 5727 5728 5730 5731 5731 5731 5731 5732 5734 5734 5733 5733 5733 5733 5734 5734 5733 5734 5735 5734 5734 5736 5737 5738 5740 5742 5744 5745 5748
5722 5723 5725 5726 5728 5729 5731 5732 5732 5733 5734 5735 5737 5737 5736 5737 5738 5738 5738 5739 5739 5739 5740 5741 5742 5743 5745 5746 5748 5751 5753 5755
5721 5723 5723 5725 5726 5728 5730 5732 5733 5734 5736 5737 5738 5739 5739 5740 5740 5741 5741 5742 5743 5744 5745 5746 5747 5748 5750 5752 5753 5756 5758 5759
5718 5721 5723 5724 5725 5726 5728 5731 5733 5734 5735 5737 5739 5740 5741 5742 5743 5743 5744 5745 5746 5748 5749 5750 5751 5753 5755 5756 5758 5759 5761 5763
5715 5718 5720 5722 5723 5724 5726 5728 5731 5733 5734 5736 5739 5740 5742 5743 5745 5746 5747 5748 5750 5752 5753 5755 5756 5758 5759 5761 5762 5763 5765 5766
5712 5715 5718 5719 5721 5723 5724 5726 5728 5730 5732 5735 5736 5739 5742 5743 5745 5747 5748 5750 5751 5753 5755 5756 5758 5759 5760 5762 5763 5764 5765 5765
5705 5711 5714 5716 5718 5720 5722 5724 5726 5727 5729 5732 5735 5737 5739 5742 5744 5746 5748 5750 5752 5753 5754 5756 5757 5759 5760 5761 5762 5763 5763 5763
5703 5705 5709 5712 5714 5717 5718 5720 5722 5724 5726 5729 5731 5734 5736 5738 5741 5744 5747 5748 5750 5752 5753 5754 5755 5756 5757 5759 5760 5760 5759 5759
5698 5700 5702 5707 5710 5711 5715 5717 5719 5720 5723 5725 5728 5730 5733 5735 5738 5740 5743 5745 5747 5749 5750 5751 5752 5753 5754 5755 5756 5756 5756 5755
5689 5694 5697 5700 5704 5706 5709 5712 5714 5716 5718 5721 5723 5726 5728 5731 5734 5736 5738 5740 5742 5744 5746 5747 5748 5749 5750 5751 5751 5752 5752 5752
5683 5688 5691 5694 5697 5699 5702 5706 5710 5712 5714 5716 5718 5720 5723 5726 5728 5731 5732 5735 5737 5738 5739 5741 5743 5744 5744 5745 5746 5746 5746 5746
5675 5679 5683 5687 5691 5695 5696 5699 5701 5706 5708 5710 5713 5716 5717 5719 5722 5724 5726 5728 5730 5732 5733 5735 5737 5738 5739 5740 5741 5742 5741 5740